Year,Month,Day,Hour,Minute,Value (Times are PST for temperature in C)
2009,04,26,00,00,7.50
2009,04,26,00,01,7.50
2009,04,26,00,02,7.50
2009,04,26,00,03,7.50
2009,04,26,00,04,7.50
2009,04,26,00,05,7.50
2009,04,26,00,06,7.50
2009,04,26,00,07,7.50
2009,04,26,00,08,7.50
2009,04,26,00,09,7.50
2009,04,26,00,10,7.40
2009,04,26,00,11,7.40
2009,04,26,00,12,7.40
2009,04,26,00,13,7.40
2009,04,26,00,14,7.40
2009,04,26,00,15,7.40
2009,04,26,00,16,7.40
2009,04,26,00,17,7.40
2009,04,26,00,18,7.40
2009,04,26,00,19,7.40
2009,04,26,00,20,7.40
2009,04,26,00,21,7.40
2009,04,26,00,22,7.40
2009,04,26,00,23,7.40
2009,04,26,00,24,7.40
2009,04,26,00,25,7.40
2009,04,26,00,26,7.30
2009,04,26,00,27,7.30
2009,04,26,00,28,7.30
2009,04,26,00,29,7.30
2009,04,26,00,30,7.30
2009,04,26,00,31,7.30
2009,04,26,00,32,7.30
2009,04,26,00,33,7.30
2009,04,26,00,34,7.30
2009,04,26,00,35,7.20
2009,04,26,00,36,7.20
2009,04,26,00,37,7.20
2009,04,26,00,38,7.20
2009,04,26,00,39,7.20
2009,04,26,00,40,7.20
2009,04,26,00,41,7.20
2009,04,26,00,42,7.20
2009,04,26,00,43,7.30
2009,04,26,00,44,7.30
2009,04,26,00,45,7.30
2009,04,26,00,46,7.30
2009,04,26,00,47,7.30
2009,04,26,00,48,7.30
2009,04,26,00,49,7.30
2009,04,26,00,50,7.30
2009,04,26,00,51,7.30
2009,04,26,00,52,7.30
2009,04,26,00,53,7.30
2009,04,26,00,54,7.30
2009,04,26,00,55,7.30
2009,04,26,00,56,7.30
2009,04,26,00,57,7.30
2009,04,26,00,58,7.30
2009,04,26,00,59,7.30
2009,04,26,01,00,7.30
2009,04,26,01,01,7.30
2009,04,26,01,02,7.30
2009,04,26,01,03,7.40
2009,04,26,01,04,7.40
2009,04,26,01,05,7.40
2009,04,26,01,06,7.40
2009,04,26,01,07,7.40
2009,04,26,01,08,7.40
2009,04,26,01,09,7.50
2009,04,26,01,10,7.40
2009,04,26,01,11,7.40
2009,04,26,01,12,7.40
2009,04,26,01,13,7.40
2009,04,26,01,14,7.30
2009,04,26,01,15,7.30
2009,04,26,01,16,7.30
2009,04,26,01,17,7.30
2009,04,26,01,18,7.30
2009,04,26,01,19,7.20
2009,04,26,01,20,7.10
2009,04,26,01,21,7.10
2009,04,26,01,22,7.00
2009,04,26,01,23,7.00
2009,04,26,01,24,7.00
2009,04,26,01,25,6.90
2009,04,26,01,26,6.80
2009,04,26,01,27,6.80
2009,04,26,01,28,6.80
2009,04,26,01,29,6.70
2009,04,26,01,30,6.70
2009,04,26,01,31,6.60
2009,04,26,01,32,6.60
2009,04,26,01,33,6.50
2009,04,26,01,34,6.40
2009,04,26,01,35,6.40
2009,04,26,01,36,6.30
2009,04,26,01,37,6.30
2009,04,26,01,38,6.20
2009,04,26,01,39,6.20
2009,04,26,01,40,6.10
2009,04,26,01,41,6.10
2009,04,26,01,42,6.00
2009,04,26,01,43,6.00
2009,04,26,01,44,5.90
2009,04,26,01,45,5.90
2009,04,26,01,46,5.80
2009,04,26,01,47,5.80
2009,04,26,01,48,5.70
2009,04,26,01,49,5.70
2009,04,26,01,50,5.70
2009,04,26,01,51,5.70
2009,04,26,01,52,5.60
2009,04,26,01,53,5.60
2009,04,26,01,54,5.50
2009,04,26,01,55,5.50
2009,04,26,01,56,5.40
2009,04,26,01,57,5.40
2009,04,26,01,58,5.30
2009,04,26,01,59,5.30
2009,04,26,02,00,5.30
2009,04,26,02,01,5.30
2009,04,26,02,02,5.20
2009,04,26,02,03,5.20
2009,04,26,02,04,5.20
2009,04,26,02,05,5.10
2009,04,26,02,06,5.10
2009,04,26,02,07,5.10
2009,04,26,02,08,5.10
2009,04,26,02,09,5.10
2009,04,26,02,10,5.10
2009,04,26,02,11,4.90
2009,04,26,02,12,4.90
2009,04,26,02,13,4.90
2009,04,26,02,14,4.90
2009,04,26,02,15,4.90
2009,04,26,02,16,4.90
2009,04,26,02,17,4.80
2009,04,26,02,18,4.80
2009,04,26,02,19,4.80
2009,04,26,02,20,4.80
2009,04,26,02,21,4.80
2009,04,26,02,22,4.80
2009,04,26,02,23,4.70
2009,04,26,02,24,4.70
2009,04,26,02,25,4.70
2009,04,26,02,26,4.70
2009,04,26,02,27,4.70
2009,04,26,02,28,4.60
2009,04,26,02,29,4.60
2009,04,26,02,30,4.60
2009,04,26,02,31,4.60
2009,04,26,02,32,4.60
2009,04,26,02,33,4.60
2009,04,26,02,34,4.60
2009,04,26,02,35,4.50
2009,04,26,02,36,4.50
2009,04,26,02,37,4.50
2009,04,26,02,38,4.50
2009,04,26,02,39,4.50
2009,04,26,02,40,4.50
2009,04,26,02,41,4.50
2009,04,26,02,42,4.50
2009,04,26,02,43,4.50
2009,04,26,02,44,4.50
2009,04,26,02,45,4.50
2009,04,26,02,46,4.50
2009,04,26,02,47,4.50
2009,04,26,02,48,4.50
2009,04,26,02,49,4.50
2009,04,26,02,50,4.50
2009,04,26,02,51,4.50
2009,04,26,02,52,4.50
2009,04,26,02,53,4.50
2009,04,26,02,54,4.40
2009,04,26,02,55,4.40
2009,04,26,02,56,4.40
2009,04,26,02,57,4.40
2009,04,26,02,58,4.30
2009,04,26,02,59,4.30
2009,04,26,03,00,4.20
2009,04,26,03,01,4.20
2009,04,26,03,02,4.20
2009,04,26,03,03,4.20
2009,04,26,03,04,4.20
2009,04,26,03,05,4.10
2009,04,26,03,06,4.10
2009,04,26,03,07,4.10
2009,04,26,03,08,4.10
2009,04,26,03,09,4.10
2009,04,26,03,10,4.00
2009,04,26,03,11,4.00
2009,04,26,03,12,4.00
2009,04,26,03,13,4.00
2009,04,26,03,14,4.00
2009,04,26,03,15,4.00
2009,04,26,03,16,4.00
2009,04,26,03,17,3.90
2009,04,26,03,18,3.90
2009,04,26,03,19,3.90
2009,04,26,03,20,3.90
2009,04,26,03,21,3.80
2009,04,26,03,22,3.80
2009,04,26,03,23,3.80
2009,04,26,03,24,3.80
2009,04,26,03,25,3.80
2009,04,26,03,26,3.80
2009,04,26,03,27,3.80
2009,04,26,03,28,3.80
2009,04,26,03,29,3.80
2009,04,26,03,30,3.80
2009,04,26,03,31,3.80
2009,04,26,03,32,3.80
2009,04,26,03,33,3.70
2009,04,26,03,34,3.70
2009,04,26,03,35,3.70
2009,04,26,03,36,3.70
2009,04,26,03,37,3.70
2009,04,26,03,38,3.70
2009,04,26,03,39,3.70
2009,04,26,03,40,3.70
2009,04,26,03,41,3.70
2009,04,26,03,42,3.70
2009,04,26,03,43,3.70
2009,04,26,03,44,3.70
2009,04,26,03,45,3.70
2009,04,26,03,46,3.70
2009,04,26,03,47,3.70
2009,04,26,03,48,3.70
2009,04,26,03,49,3.60
2009,04,26,03,50,3.60
2009,04,26,03,51,3.60
2009,04,26,03,52,3.60
2009,04,26,03,53,3.60
2009,04,26,03,54,3.60
2009,04,26,03,55,3.50
2009,04,26,03,56,3.50
2009,04,26,03,57,3.50
2009,04,26,03,58,3.50
2009,04,26,03,59,3.50
2009,04,26,04,00,3.50
2009,04,26,04,01,3.40
2009,04,26,04,02,3.40
2009,04,26,04,03,3.40
2009,04,26,04,04,3.40
2009,04,26,04,05,3.40
2009,04,26,04,06,3.40
2009,04,26,04,07,3.40
2009,04,26,04,08,3.40
2009,04,26,04,09,3.40
2009,04,26,04,10,3.40
2009,04,26,04,11,3.30
2009,04,26,04,12,3.30
2009,04,26,04,13,3.30
2009,04,26,04,14,3.30
2009,04,26,04,15,3.30
2009,04,26,04,16,3.30
2009,04,26,04,17,3.30
2009,04,26,04,18,3.30
2009,04,26,04,19,3.30
2009,04,26,04,20,3.30
2009,04,26,04,21,3.30
2009,04,26,04,22,3.30
2009,04,26,04,23,3.30
2009,04,26,04,24,3.30
2009,04,26,04,25,3.30
2009,04,26,04,26,3.20
2009,04,26,04,27,3.20
2009,04,26,04,28,3.20
2009,04,26,04,29,3.20
2009,04,26,04,30,3.20
2009,04,26,04,31,3.10
2009,04,26,04,32,3.10
2009,04,26,04,33,3.10
2009,04,26,04,34,3.10
2009,04,26,04,35,3.10
2009,04,26,04,36,3.10
2009,04,26,04,37,3.10
2009,04,26,04,38,3.10
2009,04,26,04,39,3.00
2009,04,26,04,40,2.90
2009,04,26,04,41,2.90
2009,04,26,04,42,2.90
2009,04,26,04,43,2.90
2009,04,26,04,44,2.90
2009,04,26,04,45,2.90
2009,04,26,04,46,2.90
2009,04,26,04,47,2.90
2009,04,26,04,48,2.90
2009,04,26,04,49,2.90
2009,04,26,04,50,2.90
2009,04,26,04,51,2.90
2009,04,26,04,52,2.90
2009,04,26,04,53,2.90
2009,04,26,04,54,2.80
2009,04,26,04,55,2.80
2009,04,26,04,56,2.80
2009,04,26,04,57,2.80
2009,04,26,04,58,2.80
2009,04,26,04,59,2.80
2009,04,26,05,00,2.80
2009,04,26,05,01,2.80
2009,04,26,05,02,2.80
2009,04,26,05,03,2.80
2009,04,26,05,04,2.80
2009,04,26,05,05,2.80
2009,04,26,05,06,2.80
2009,04,26,05,07,2.80
2009,04,26,05,08,2.80
2009,04,26,05,09,2.80
2009,04,26,05,10,2.80
2009,04,26,05,11,2.80
2009,04,26,05,12,2.80
2009,04,26,05,13,2.80
2009,04,26,05,14,2.80
2009,04,26,05,15,2.80
2009,04,26,05,16,2.80
2009,04,26,05,17,2.80
2009,04,26,05,18,2.80
2009,04,26,05,19,2.80
2009,04,26,05,20,2.80
2009,04,26,05,21,2.80
2009,04,26,05,22,2.90
2009,04,26,05,23,2.90
2009,04,26,05,24,2.90
2009,04,26,05,25,2.90
2009,04,26,05,26,2.90
2009,04,26,05,27,2.90
2009,04,26,05,28,2.90
2009,04,26,05,29,2.90
2009,04,26,05,30,2.80
2009,04,26,05,31,2.80
2009,04,26,05,32,2.80
2009,04,26,05,33,2.80
2009,04,26,05,34,2.80
2009,04,26,05,35,2.70
2009,04,26,05,36,2.70
2009,04,26,05,37,2.70
2009,04,26,05,38,2.70
2009,04,26,05,39,2.70
2009,04,26,05,40,2.70
2009,04,26,05,41,2.70
2009,04,26,05,42,2.70
2009,04,26,05,43,2.70
2009,04,26,05,44,2.70
2009,04,26,05,45,2.70
2009,04,26,05,46,2.60
2009,04,26,05,47,2.60
2009,04,26,05,48,2.60
2009,04,26,05,49,2.60
2009,04,26,05,50,2.60
2009,04,26,05,51,2.50
2009,04,26,05,52,2.50
2009,04,26,05,53,2.50
2009,04,26,05,54,2.50
2009,04,26,05,55,2.50
2009,04,26,05,56,2.50
2009,04,26,05,57,2.50
2009,04,26,05,58,2.50
2009,04,26,05,59,2.40
2009,04,26,06,00,2.40
2009,04,26,06,01,2.40
2009,04,26,06,02,2.40
2009,04,26,06,03,2.40
2009,04,26,06,04,2.40
2009,04,26,06,05,2.40
2009,04,26,06,06,2.40
2009,04,26,06,07,2.40
2009,04,26,06,08,2.40
2009,04,26,06,09,2.40
2009,04,26,06,10,2.40
2009,04,26,06,11,2.30
2009,04,26,06,12,2.30
2009,04,26,06,13,2.30
2009,04,26,06,14,2.30
2009,04,26,06,15,2.40
2009,04,26,06,16,2.50
2009,04,26,06,17,2.60
2009,04,26,06,18,2.70
2009,04,26,06,19,2.70
2009,04,26,06,20,2.70
2009,04,26,06,21,2.70
2009,04,26,06,22,2.70
2009,04,26,06,23,2.70
2009,04,26,06,24,2.60
2009,04,26,06,25,2.60
2009,04,26,06,26,2.60
2009,04,26,06,27,2.70
2009,04,26,06,28,2.70
2009,04,26,06,29,2.70
2009,04,26,06,30,2.70
2009,04,26,06,31,2.70
2009,04,26,06,32,2.70
2009,04,26,06,33,2.70
2009,04,26,06,34,2.70
2009,04,26,06,35,2.80
2009,04,26,06,36,2.80
2009,04,26,06,37,2.80
2009,04,26,06,38,2.80
2009,04,26,06,39,2.80
2009,04,26,06,40,2.80
2009,04,26,06,41,2.80
2009,04,26,06,42,2.80
2009,04,26,06,43,2.80
2009,04,26,06,44,2.80
2009,04,26,06,45,2.80
2009,04,26,06,46,2.80
2009,04,26,06,47,2.80
2009,04,26,06,48,2.80
2009,04,26,06,49,2.90
2009,04,26,06,50,2.90
2009,04,26,06,51,2.90
2009,04,26,06,52,2.90
2009,04,26,06,53,2.90
2009,04,26,06,54,2.90
2009,04,26,06,55,2.90
2009,04,26,06,56,2.90
2009,04,26,06,57,3.00
2009,04,26,06,58,3.10
2009,04,26,06,59,3.10
2009,04,26,07,00,3.10
2009,04,26,07,01,3.10
2009,04,26,07,02,3.10
2009,04,26,07,03,3.20
2009,04,26,07,04,3.20
2009,04,26,07,05,3.20
2009,04,26,07,06,3.30
2009,04,26,07,07,3.30
2009,04,26,07,08,3.30
2009,04,26,07,09,3.30
2009,04,26,07,10,3.40
2009,04,26,07,11,3.40
2009,04,26,07,12,3.50
2009,04,26,07,13,3.50
2009,04,26,07,14,3.50
2009,04,26,07,15,3.60
2009,04,26,07,16,3.60
2009,04,26,07,17,3.70
2009,04,26,07,18,3.80
2009,04,26,07,19,3.80
2009,04,26,07,20,3.90
2009,04,26,07,21,3.90
2009,04,26,07,22,4.00
2009,04,26,07,23,4.00
2009,04,26,07,24,4.10
2009,04,26,07,25,4.20
2009,04,26,07,26,4.20
2009,04,26,07,27,4.20
2009,04,26,07,28,4.30
2009,04,26,07,29,4.40
2009,04,26,07,30,4.40
2009,04,26,07,31,4.50
2009,04,26,07,32,4.60
2009,04,26,07,33,4.60
2009,04,26,07,34,4.70
2009,04,26,07,35,4.70
2009,04,26,07,36,4.80
2009,04,26,07,37,4.90
2009,04,26,07,38,4.90
2009,04,26,07,39,5.00
2009,04,26,07,40,5.10
2009,04,26,07,41,5.10
2009,04,26,07,42,5.20
2009,04,26,07,43,5.30
2009,04,26,07,44,5.30
2009,04,26,07,45,5.40
2009,04,26,07,46,5.50
2009,04,26,07,47,5.50
2009,04,26,07,48,5.60
2009,04,26,07,49,5.70
2009,04,26,07,50,5.70
2009,04,26,07,51,5.80
2009,04,26,07,52,5.90
2009,04,26,07,53,5.90
2009,04,26,07,54,6.00
2009,04,26,07,55,6.10
2009,04,26,07,56,6.20
2009,04,26,07,57,6.20
2009,04,26,07,58,6.30
2009,04,26,07,59,6.40
2009,04,26,08,00,6.40
2009,04,26,08,01,6.60
2009,04,26,08,02,6.60
2009,04,26,08,03,6.70
2009,04,26,08,04,6.80
2009,04,26,08,05,6.80
2009,04,26,08,06,6.90
2009,04,26,08,07,7.00
2009,04,26,08,08,7.10
2009,04,26,08,09,7.10
2009,04,26,08,10,7.20
2009,04,26,08,11,7.30
2009,04,26,08,12,7.40
2009,04,26,08,13,7.50
2009,04,26,08,14,7.50
2009,04,26,08,15,7.60
2009,04,26,08,16,7.70
2009,04,26,08,17,7.80
2009,04,26,08,18,7.80
2009,04,26,08,19,7.90
2009,04,26,08,20,8.00
2009,04,26,08,21,8.10
2009,04,26,08,22,8.20
2009,04,26,08,23,8.30
2009,04,26,08,24,8.40
2009,04,26,08,25,8.60
2009,04,26,08,26,8.80
2009,04,26,08,27,8.90
2009,04,26,08,28,9.00
2009,04,26,08,29,9.00
2009,04,26,08,30,9.10
2009,04,26,08,31,9.10
2009,04,26,08,32,9.20
2009,04,26,08,33,9.20
2009,04,26,08,34,9.30
2009,04,26,08,35,9.30
2009,04,26,08,36,9.30
2009,04,26,08,37,9.30
2009,04,26,08,38,9.30
2009,04,26,08,39,9.30
2009,04,26,08,40,9.30
2009,04,26,08,41,9.30
2009,04,26,08,42,9.20
2009,04,26,08,43,9.20
2009,04,26,08,44,9.20
2009,04,26,08,45,9.20
2009,04,26,08,46,9.20
2009,04,26,08,47,9.20
2009,04,26,08,48,9.30
2009,04,26,08,49,9.40
2009,04,26,08,50,9.40
2009,04,26,08,51,9.50
2009,04,26,08,52,9.50
2009,04,26,08,53,9.60
2009,04,26,08,54,9.70
2009,04,26,08,55,9.80
2009,04,26,08,56,9.80
2009,04,26,08,57,9.90
2009,04,26,08,58,10.00
2009,04,26,08,59,10.10
2009,04,26,09,00,10.10
2009,04,26,09,01,10.10
2009,04,26,09,02,10.10
2009,04,26,09,03,10.10
2009,04,26,09,04,10.20
2009,04,26,09,05,10.20
2009,04,26,09,06,10.20
2009,04,26,09,07,10.20
2009,04,26,09,08,10.10
2009,04,26,09,09,10.00
2009,04,26,09,10,9.90
2009,04,26,09,11,9.80
2009,04,26,09,12,9.70
2009,04,26,09,13,9.60
2009,04,26,09,14,9.50
2009,04,26,09,15,9.40
2009,04,26,09,16,9.30
2009,04,26,09,17,9.30
2009,04,26,09,18,9.30
2009,04,26,09,19,9.40
2009,04,26,09,20,9.50
2009,04,26,09,21,9.60
2009,04,26,09,22,9.70
2009,04,26,09,23,9.70
2009,04,26,09,24,9.70
2009,04,26,09,25,9.70
2009,04,26,09,26,9.70
2009,04,26,09,27,9.70
2009,04,26,09,28,9.80
2009,04,26,09,29,9.70
2009,04,26,09,30,9.70
2009,04,26,09,31,9.70
2009,04,26,09,32,9.70
2009,04,26,09,33,9.70
2009,04,26,09,34,9.80
2009,04,26,09,35,9.90
2009,04,26,09,36,9.90
2009,04,26,09,37,9.90
2009,04,26,09,38,10.00
2009,04,26,09,39,10.20
2009,04,26,09,40,10.20
2009,04,26,09,41,10.10
2009,04,26,09,42,10.00
2009,04,26,09,43,9.90
2009,04,26,09,44,9.90
2009,04,26,09,45,9.90
2009,04,26,09,46,9.90
2009,04,26,09,47,9.90
2009,04,26,09,48,9.90
2009,04,26,09,49,9.90
2009,04,26,09,50,9.90
2009,04,26,09,51,9.90
2009,04,26,09,52,9.80
2009,04,26,09,53,9.70
2009,04,26,09,54,9.70
2009,04,26,09,55,9.70
2009,04,26,09,56,9.70
2009,04,26,09,57,9.70
2009,04,26,09,58,9.80
2009,04,26,09,59,9.80
2009,04,26,10,00,9.80
2009,04,26,10,01,9.90
2009,04,26,10,02,10.00
2009,04,26,10,03,10.10
2009,04,26,10,04,10.20
2009,04,26,10,05,10.30
2009,04,26,10,06,10.30
2009,04,26,10,07,10.30
2009,04,26,10,08,10.30
2009,04,26,10,09,10.40
2009,04,26,10,10,10.50
2009,04,26,10,11,10.60
2009,04,26,10,12,10.60
2009,04,26,10,13,10.60
2009,04,26,10,14,10.60
2009,04,26,10,15,10.60
2009,04,26,10,16,10.60
2009,04,26,10,17,10.70
2009,04,26,10,18,10.80
2009,04,26,10,19,10.90
2009,04,26,10,20,10.90
2009,04,26,10,21,10.90
2009,04,26,10,22,11.00
2009,04,26,10,23,11.00
2009,04,26,10,24,10.90
2009,04,26,10,25,10.90
2009,04,26,10,26,10.90
2009,04,26,10,27,10.90
2009,04,26,10,28,10.90
2009,04,26,10,29,11.00
2009,04,26,10,30,11.10
2009,04,26,10,31,11.10
2009,04,26,10,32,11.10
2009,04,26,10,33,11.10
2009,04,26,10,34,11.10
2009,04,26,10,35,11.00
2009,04,26,10,36,10.80
2009,04,26,10,37,10.60
2009,04,26,10,38,10.50
2009,04,26,10,39,10.30
2009,04,26,10,40,10.30
2009,04,26,10,41,10.20
2009,04,26,10,42,10.20
2009,04,26,10,43,10.10
2009,04,26,10,44,10.00
2009,04,26,10,45,9.90
2009,04,26,10,46,9.90
2009,04,26,10,47,9.90
2009,04,26,10,48,10.00
2009,04,26,10,49,10.10
2009,04,26,10,50,10.30
2009,04,26,10,51,10.20
2009,04,26,10,52,10.20
2009,04,26,10,53,10.20
2009,04,26,10,54,10.20
2009,04,26,10,55,10.30
2009,04,26,10,56,10.20
2009,04,26,10,57,10.20
2009,04,26,10,58,10.00
2009,04,26,10,59,9.90
2009,04,26,11,00,9.80
2009,04,26,11,01,9.90
2009,04,26,11,02,9.90
2009,04,26,11,03,9.90
2009,04,26,11,04,9.90
2009,04,26,11,05,10.10
2009,04,26,11,06,10.20
2009,04,26,11,07,10.20
2009,04,26,11,08,10.30
2009,04,26,11,09,10.30
2009,04,26,11,10,10.30
2009,04,26,11,11,10.30
2009,04,26,11,12,10.20
2009,04,26,11,13,10.30
2009,04,26,11,14,10.30
2009,04,26,11,15,10.30
2009,04,26,11,16,10.40
2009,04,26,11,17,10.40
2009,04,26,11,18,10.30
2009,04,26,11,19,10.20
2009,04,26,11,20,10.00
2009,04,26,11,21,9.90
2009,04,26,11,22,9.90
2009,04,26,11,23,9.90
2009,04,26,11,24,9.90
2009,04,26,11,25,9.90
2009,04,26,11,26,10.00
2009,04,26,11,27,10.10
2009,04,26,11,28,10.10
2009,04,26,11,29,10.20
2009,04,26,11,30,10.30
2009,04,26,11,31,10.30
2009,04,26,11,32,10.20
2009,04,26,11,33,10.20
2009,04,26,11,34,10.20
2009,04,26,11,35,10.20
2009,04,26,11,36,10.30
2009,04,26,11,37,10.30
2009,04,26,11,38,10.30
2009,04,26,11,39,10.30
2009,04,26,11,40,10.30
2009,04,26,11,41,10.20
2009,04,26,11,42,10.20
2009,04,26,11,43,10.20
2009,04,26,11,44,10.00
2009,04,26,11,45,9.90
2009,04,26,11,46,9.80
2009,04,26,11,47,9.70
2009,04,26,11,48,9.60
2009,04,26,11,49,9.70
2009,04,26,11,50,9.70
2009,04,26,11,51,9.80
2009,04,26,11,52,10.00
2009,04,26,11,53,10.10
2009,04,26,11,54,10.20
2009,04,26,11,55,10.20
2009,04,26,11,56,10.20
2009,04,26,11,57,10.20
2009,04,26,11,58,10.00
2009,04,26,11,59,10.00
2009,04,26,12,00,10.10
2009,04,26,12,01,10.10
2009,04,26,12,02,10.20
2009,04,26,12,03,10.20
2009,04,26,12,04,10.30
2009,04,26,12,05,10.40
2009,04,26,12,06,10.40
2009,04,26,12,07,10.60
2009,04,26,12,08,10.60
2009,04,26,12,09,10.60
2009,04,26,12,10,10.50
2009,04,26,12,11,10.20
2009,04,26,12,12,10.20
2009,04,26,12,13,10.30
2009,04,26,12,14,10.40
2009,04,26,12,15,10.50
2009,04,26,12,16,10.60
2009,04,26,12,17,10.40
2009,04,26,12,18,10.20
2009,04,26,12,19,10.20
2009,04,26,12,20,10.30
2009,04,26,12,21,10.30
2009,04,26,12,22,10.30
2009,04,26,12,23,10.20
2009,04,26,12,24,10.20
2009,04,26,12,25,10.20
2009,04,26,12,26,10.20
2009,04,26,12,27,10.10
2009,04,26,12,28,10.10
2009,04,26,12,29,10.00
2009,04,26,12,30,9.90
2009,04,26,12,31,9.90
2009,04,26,12,32,10.10
2009,04,26,12,33,10.20
2009,04,26,12,34,10.30
2009,04,26,12,35,10.30
2009,04,26,12,36,10.30
2009,04,26,12,37,10.20
2009,04,26,12,38,10.10
2009,04,26,12,39,10.10
2009,04,26,12,40,10.10
2009,04,26,12,41,10.10
2009,04,26,12,42,10.10
2009,04,26,12,43,10.20
2009,04,26,12,44,10.20
2009,04,26,12,45,10.20
2009,04,26,12,46,10.20
2009,04,26,12,47,10.20
2009,04,26,12,48,10.20
2009,04,26,12,49,10.20
2009,04,26,12,50,10.20
2009,04,26,12,51,10.20
2009,04,26,12,52,10.10
2009,04,26,12,53,10.10
2009,04,26,12,54,10.10
2009,04,26,12,55,10.20
2009,04,26,12,56,10.30
2009,04,26,12,57,10.40
2009,04,26,12,58,10.40
2009,04,26,12,59,10.40
2009,04,26,13,00,10.50
2009,04,26,13,01,10.60
2009,04,26,13,02,10.60
2009,04,26,13,03,10.50
2009,04,26,13,04,10.30
2009,04,26,13,05,10.30
2009,04,26,13,06,10.40
2009,04,26,13,07,10.30
2009,04,26,13,08,10.40
2009,04,26,13,09,10.40
2009,04,26,13,10,10.50
2009,04,26,13,11,10.70
2009,04,26,13,12,10.70
2009,04,26,13,13,10.90
2009,04,26,13,14,11.00
2009,04,26,13,15,11.10
2009,04,26,13,16,11.10
2009,04,26,13,17,11.10
2009,04,26,13,18,11.20
2009,04,26,13,19,11.20
2009,04,26,13,20,11.20
2009,04,26,13,21,11.30
2009,04,26,13,22,11.30
2009,04,26,13,23,11.20
2009,04,26,13,24,11.00
2009,04,26,13,25,10.90
2009,04,26,13,26,11.00
2009,04,26,13,27,11.10
2009,04,26,13,28,11.30
2009,04,26,13,29,11.30
2009,04,26,13,30,11.20
2009,04,26,13,31,11.20
2009,04,26,13,32,11.20
2009,04,26,13,33,11.30
2009,04,26,13,34,11.40
2009,04,26,13,35,11.40
2009,04,26,13,36,11.40
2009,04,26,13,37,11.30
2009,04,26,13,38,11.40
2009,04,26,13,39,11.40
2009,04,26,13,40,11.40
2009,04,26,13,41,11.50
2009,04,26,13,42,11.70
2009,04,26,13,43,11.80
2009,04,26,13,44,11.80
2009,04,26,13,45,11.90
2009,04,26,13,46,11.90
2009,04,26,13,47,11.90
2009,04,26,13,48,11.70
2009,04,26,13,49,11.40
2009,04,26,13,50,11.20
2009,04,26,13,51,11.10
2009,04,26,13,52,10.90
2009,04,26,13,53,10.80
2009,04,26,13,54,10.90
2009,04,26,13,55,10.80
2009,04,26,13,56,10.80
2009,04,26,13,57,10.80
2009,04,26,13,58,10.70
2009,04,26,13,59,10.50
2009,04,26,14,00,10.40
2009,04,26,14,01,10.40
2009,04,26,14,02,10.40
2009,04,26,14,03,10.40
2009,04,26,14,04,10.40
2009,04,26,14,05,10.40
2009,04,26,14,06,10.50
2009,04,26,14,07,10.60
2009,04,26,14,08,10.60
2009,04,26,14,09,10.70
2009,04,26,14,10,10.80
2009,04,26,14,11,10.90
2009,04,26,14,12,11.10
2009,04,26,14,17,11.40
2009,04,26,14,18,11.40
2009,04,26,14,19,11.40
2009,04,26,14,20,11.30
2009,04,26,14,21,11.20
2009,04,26,14,22,11.10
2009,04,26,14,23,11.00
2009,04,26,14,24,11.00
2009,04,26,14,25,11.10
2009,04,26,14,26,11.10
2009,04,26,14,27,11.20
2009,04,26,14,28,11.20
2009,04,26,14,29,11.10
2009,04,26,14,30,11.10
2009,04,26,14,31,11.10
2009,04,26,14,32,11.20
2009,04,26,14,33,11.20
2009,04,26,14,34,11.20
2009,04,26,14,35,11.20
2009,04,26,14,36,11.10
2009,04,26,14,37,11.10
2009,04,26,14,38,11.10
2009,04,26,14,39,11.20
2009,04,26,14,40,11.40
2009,04,26,14,41,11.40
2009,04,26,14,42,11.50
2009,04,26,14,43,11.60
2009,04,26,14,44,11.80
2009,04,26,14,45,11.90
2009,04,26,14,46,11.80
2009,04,26,14,47,11.80
2009,04,26,14,48,11.90
2009,04,26,14,49,11.80
2009,04,26,14,50,11.80
2009,04,26,14,51,11.80
2009,04,26,14,52,11.70
2009,04,26,14,53,11.60
2009,04,26,14,54,11.60
2009,04,26,14,55,11.70
2009,04,26,14,56,11.70
2009,04,26,14,57,11.70
2009,04,26,14,58,11.70
2009,04,26,14,59,11.60
2009,04,26,15,00,11.60
2009,04,26,15,01,11.60
2009,04,26,15,02,11.60
2009,04,26,15,03,11.70
2009,04,26,15,04,11.80
2009,04,26,15,05,11.90
2009,04,26,15,06,12.00
2009,04,26,15,07,12.00
2009,04,26,15,08,12.00
2009,04,26,15,09,11.80
2009,04,26,15,10,11.90
2009,04,26,15,11,11.90
2009,04,26,15,12,12.00
2009,04,26,15,13,12.10
2009,04,26,15,14,12.20
2009,04,26,15,15,12.30
2009,04,26,15,16,12.20
2009,04,26,15,17,12.00
2009,04,26,15,18,11.90
2009,04,26,15,19,11.80
2009,04,26,15,20,11.90
2009,04,26,15,21,12.00
2009,04,26,15,22,12.00
2009,04,26,15,23,11.90
2009,04,26,15,24,12.00
2009,04,26,15,25,12.20
2009,04,26,15,26,12.30
2009,04,26,15,27,12.30
2009,04,26,15,28,12.40
2009,04,26,15,29,12.30
2009,04,26,15,30,12.30
2009,04,26,15,31,12.30
2009,04,26,15,32,12.30
2009,04,26,15,33,12.30
2009,04,26,15,34,12.30
2009,04,26,15,35,12.20
2009,04,26,15,36,12.30
2009,04,26,15,37,12.30
2009,04,26,15,38,12.30
2009,04,26,15,39,12.30
2009,04,26,15,40,12.10
2009,04,26,15,41,12.00
2009,04,26,15,42,12.00
2009,04,26,15,43,12.00
2009,04,26,15,44,12.00
2009,04,26,15,45,12.10
2009,04,26,15,46,12.20
2009,04,26,15,47,12.20
2009,04,26,15,48,12.20
2009,04,26,15,49,12.20
2009,04,26,15,50,12.20
2009,04,26,15,51,12.30
2009,04,26,15,52,12.30
2009,04,26,15,53,12.40
2009,04,26,15,54,12.50
2009,04,26,15,55,12.60
2009,04,26,15,56,12.80
2009,04,26,15,57,12.90
2009,04,26,15,58,13.10
2009,04,26,15,59,13.20
2009,04,26,16,00,13.40
2009,04,26,16,01,13.50
2009,04,26,16,02,13.50
2009,04,26,16,03,13.60
2009,04,26,16,04,13.70
2009,04,26,16,05,13.90
2009,04,26,16,06,14.00
2009,04,26,16,07,14.00
2009,04,26,16,08,14.10
2009,04,26,16,09,14.10
2009,04,26,16,10,14.20
2009,04,26,16,11,14.20
2009,04,26,16,12,14.20
2009,04,26,16,13,14.20
2009,04,26,16,14,14.20
2009,04,26,16,15,14.10
2009,04,26,16,16,14.00
2009,04,26,16,17,14.00
2009,04,26,16,18,14.00
2009,04,26,16,19,14.00
2009,04,26,16,20,14.00
2009,04,26,16,21,14.00
2009,04,26,16,22,13.90
2009,04,26,16,23,13.90
2009,04,26,16,24,13.80
2009,04,26,16,25,13.70
2009,04,26,16,26,13.70
2009,04,26,16,27,13.70
2009,04,26,16,28,13.70
2009,04,26,16,29,13.80
2009,04,26,16,30,13.80
2009,04,26,16,31,13.80
2009,04,26,16,32,13.90
2009,04,26,16,33,14.00
2009,04,26,16,34,14.10
2009,04,26,16,35,14.20
2009,04,26,16,36,14.20
2009,04,26,16,37,14.10
2009,04,26,16,38,13.90
2009,04,26,16,39,13.90
2009,04,26,16,40,13.90
2009,04,26,16,41,13.90
2009,04,26,16,42,13.90
2009,04,26,16,43,13.80
2009,04,26,16,44,13.70
2009,04,26,16,45,13.60
2009,04,26,16,46,13.50
2009,04,26,16,47,13.40
2009,04,26,16,48,13.30
2009,04,26,16,49,13.30
2009,04,26,16,50,13.20
2009,04,26,16,51,13.20
2009,04,26,16,52,13.10
2009,04,26,16,53,13.10
2009,04,26,16,54,13.10
2009,04,26,16,55,13.10
2009,04,26,16,56,13.00
2009,04,26,16,57,13.00
2009,04,26,16,58,13.00
2009,04,26,16,59,13.10
2009,04,26,17,00,13.10
2009,04,26,17,01,13.20
2009,04,26,17,02,13.20
2009,04,26,17,03,13.20
2009,04,26,17,04,13.10
2009,04,26,17,05,13.10
2009,04,26,17,06,13.10
2009,04,26,17,07,13.00
2009,04,26,17,08,13.00
2009,04,26,17,09,13.00
2009,04,26,17,10,13.00
2009,04,26,17,11,13.10
2009,04,26,17,12,13.10
2009,04,26,17,13,13.20
2009,04,26,17,14,13.10
2009,04,26,17,15,13.20
2009,04,26,17,16,13.20
2009,04,26,17,17,13.20
2009,04,26,17,18,13.20
2009,04,26,17,19,13.20
2009,04,26,17,20,13.10
2009,04,26,17,21,13.10
2009,04,26,17,22,13.10
2009,04,26,17,23,13.10
2009,04,26,17,24,13.10
2009,04,26,17,25,13.10
2009,04,26,17,26,13.10
2009,04,26,17,27,13.10
2009,04,26,17,28,13.00
2009,04,26,17,29,12.90
2009,04,26,17,30,12.90
2009,04,26,17,31,13.00
2009,04,26,17,32,12.90
2009,04,26,17,33,12.90
2009,04,26,17,34,12.90
2009,04,26,17,35,12.80
2009,04,26,17,36,12.80
2009,04,26,17,37,12.70
2009,04,26,17,38,12.70
2009,04,26,17,39,12.80
2009,04,26,17,40,12.80
2009,04,26,17,41,12.70
2009,04,26,17,42,12.70
2009,04,26,17,43,12.70
2009,04,26,17,44,12.70
2009,04,26,17,45,12.80
2009,04,26,17,46,12.80
2009,04,26,17,47,12.80
2009,04,26,17,48,12.80
2009,04,26,17,49,12.80